RH
68 71 71 71 70 70 68 66 68 69 68 73 73 71 72 75 77 82 82 80 78 76 75 74 71 69 69 68 65 60 56 53 50 45 40 40 40 43 45 42 42 43 42 41 41 42 42 43 42 42 41 40 38 35 30 23 20 22 25 26 27 26 27 27 27 28 28 29 29 29 28 28 29 29 29 29 29 29 29 28 29 29 29 29 29 29 29 29 29 28 28 28 28 29 24 17 15
71 74 74 73 72 72 71 69 73 75 74 78 77 75 76 76 78 80 80 79 77 75 74 71 68 66 64 61 56 54 52 47 43 40 37 36 37 40 38 33 33 34 34 35 35 37 39 39 39 38 37 35 33 31 27 23 24 26 27 27 27 26 27 28 28 28 28 29 28 29 28 29 29 29 29 29 29 29 29 29 30 30 30 30 30 30 29 29 29 29 29 29 29 29 27 20 14
72 73 74 74 73 72 73 73 77 79 79 81 78 78 79 80 79 78 77 76 74 72 71 68 66 64 57 53 48 47 44 37 33 32 32 32 33 34 32 29 29 28 29 29 29 30 32 34 33 33 32 30 29 27 25 25 27 28 27 26 28 28 28 29 29 29 29 29 29 29 29 29 29 29 29 29 29 29 29 30 29 30 30 30 30 30 30 30 29 30 29 29 29 28 29 23 13
72 72 73 73 73 73 76 78 80 82 83 83 81 82 81 78 78 77 75 73 71 69 69 68 66 59 50 44 37 33 30 24 22 20 22 25 25 27 27 26 27 26 26 26 26 25 27 30 30 30 29 27 26 26 26 27 28 28 28 27 29 29 28 28 28 29 29 29 29 29 29 29 29 29 29 29 30 30 30 30 30 31 31 31 31 31 30 30 30 30 29 30 29 29 29 19 9
71 72 72 71 73 76 78 80 83 84 85 84 82 84 79 73 74 74 72 70 70 69 65 58 52 44 35 31 25 23 21 18 18 16 17 20 21 24 24 24 26 25 25 25 26 24 25 29 29 29 27 26 26 26 26 27 28 28 28 28 29 28 28 27 27 28 28 29 29 29 29 29 29 29 29 30 30 30 30 30 31 30 30 31 31 31 30 30 30 29 29 29 29 29 24 12 8
72 73 72 73 75 76 78 81 84 82 79 78 76 77 72 69 72 71 69 67 66 61 51 40 33 29 25 23 20 20 20 18 18 17 17 19 23 25 25 26 26 25 25 25 25 23 26 30 29 28 26 26 27 26 25 27 28 28 28 28 28 29 28 28 27 28 28 29 30 29 29 29 29 29 28 28 28 30 31 30 31 30 30 31 31 32 31 31 31 30 30 29 30 29 20 11 10
75 76 76 78 80 79 82 82 79 71 64 64 66 67 65 67 70 68 65 59 52 43 35 29 24 22 22 21 21 20 19 18 17 18 18 19 24 26 26 26 26 26 26 26 25 22 26 30 28 27 27 27 27 26 25 26 27 27 28 28 28 28 28 28 28 28 29 29 29 28 26 23 21 20 19 19 21 24 25 24 26 27 25 23 24 28 28 26 26 27 29 30 30 24 15 12 12
77 78 76 80 81 76 75 69 60 53 49 53 57 59 61 62 60 58 55 46 34 26 23 23 19 19 21 19 21 21 19 18 16 19 20 22 26 27 27 27 27 28 28 27 24 21 26 30 28 28 28 27 27 28 27 27 27 28 28 27 26 24 22 22 21 20 22 21 20 19 17 14 13 13 13 13 14 15 16 16 17 18 17 15 16 19 18 17 17 18 20 23 22 15 12 12 12
71 70 66 67 66 58 54 50 43 41 44 51 51 50 50 49 46 43 41 32 21 17 19 19 17 18 19 18 21 21 19 19 18 20 21 24 28 28 27 28 28 28 29 27 21 19 25 29 29 28 28 28 28 29 28 28 28 28 28 27 27 25 19 16 15 14 14 14 14 14 13 13 13 13 13 13 13 13 13 14 14 14 14 14 14 14 14 14 13 13 13 14 14 12 12 12 12
54 50 48 48 47 41 39 37 34 37 42 44 44 41 39 38 36 34 32 27 17 15 17 15 15 17 18 18 20 21 21 21 20 22 24 26 29 28 28 28 27 28 29 27 20 17 23 28 30 29 27 28 28 28 29 29 28 28 26 25 25 23 18 15 15 14 14 14 14 14 14 14 13 13 13 13 14 14 14 14 15 15 15 14 14 14 14 13 13 13 12 12 12 12 12 11 11
32 30 30 31 32 32 32 30 30 36 36 33 34 34 34 33 32 31 27 23 16 13 15 14 15 16 18 18 19 22 23 23 22 25 28 28 29 29 28 27 27 27 28 27 20 18 24 29 31 30 29 29 29 30 30 29 26 25 23 23 22 20 17 15 15 14 14 14 14 14 14 14 14 14 14 14 14 14 15 15 15 15 15 15 15 15 15 14 13 13 12 12 12 12 11 11 11
22 25 25 27 28 26 26 25 27 32 32 29 29 29 29 28 29 29 23 18 13 12 14 14 15 16 17 18 20 23 25 24 25 28 29 29 29 28 27 26 27 28 28 26 18 19 27 29 29 30 29 28 26 24 23 21 20 18 17 17 18 17 16 15 15 15 15 14 14 15 14 15 14 15 15 15 15 15 15 15 16 16 16 16 15 15 15 15 14 14 13 13 13 12 12 12 11
21 26 26 28 30 27 24 23 23 28 31 28 27 27 27 26 26 23 17 15 13 14 16 15 14 15 18 18 19 24 26 26 27 29 29 28 27 26 26 26 27 27 27 23 16 20 25 25 25 24 22 18 16 15 15 14 14 14 14 15 15 15 15 15 15 15 15 15 15 15 15 15 16 16 16 16 16 16 16 16 16 16 16 16 16 16 15 15 14 14 14 14 13 13 13 13 13
20 23 23 27 29 26 24 23 21 24 26 23 22 22 22 21 20 16 14 15 14 15 16 15 15 16 18 19 22 27 28 28 28 28 28 27 25 25 26 27 28 27 26 21 16 19 21 20 18 16 16 15 14 14 13 13 14 14 15 15 15 15 15 16 15 15 16 16 16 16 16 17 17 18 18 17 16 16 16 16 16 17 17 17 16 16 15 15 15 14 14 14 14 14 14 14 14
17 20 21 23 24 23 22 21 20 22 21 19 18 17 17 17 16 14 14 14 14 14 15 15 16 17 19 20 23 28 29 29 28 27 25 24 25 27 28 29 29 28 28 26 23 24 21 19 17 19 24 25 23 23 20 15 14 15 15 16 16 16 16 16 16 16 16 16 16 17 17 18 18 19 19 18 17 17 17 17 17 18 18 17 17 16 15 15 15 14 14 14 14 14 14 14 14
13 16 20 20 19 18 19 18 18 21 20 18 16 16 18 17 14 13 14 14 14 14 14 15 16 17 19 21 25 28 29 29 27 24 22 22 26 29 30 30 30 31 31 31 31 30 28 25 25 29 31 32 31 31 29 21 16 16 17 17 17 17 17 17 17 17 17 18 17 18 18 18 20 21 21 21 20 19 19 19 19 19 18 17 16 15 15 14 14 13 14 14 14 14 14 14 14
9 14 17 16 17 17 17 16 16 19 19 18 15 15 17 17 13 13 14 14 13 14 14 15 15 17 19 23 26 28 29 28 26 24 21 22 26 28 30 31 32 32 33 33 33 32 31 31 32 33 32 32 32 31 31 26 21 20 20 19 19 19 19 19 18 18 18 18 18 19 19 21 24 26 25 25 23 22 21 20 20 19 18 17 16 15 14 13 13 13 14 14 14 14 14 14 14
9 14 14 14 16 16 16 15 15 16 17 18 15 14 15 15 13 13 14 13 13 15 15 15 17 18 20 23 26 28 28 28 27 25 23 22 23 26 29 32 32 33 33 33 33 32 32 33 33 33 32 30 30 29 29 26 24 23 22 22 22 22 22 22 20 20 20 19 19 20 21 24 27 26 25 25 24 23 22 22 21 20 18 17 16 15 15 14 14 14 14 14 14 15 15 15 15
10 13 13 15 18 15 14 14 14 15 16 16 15 13 13 13 12 13 14 15 15 16 17 17 19 21 22 24 26 27 27 25 25 24 23 22 21 22 25 29 30 31 31 32 32 31 31 32 32 32 31 30 28 28 27 26 26 25 24 24 25 25 25 25 24 23 23 22 21 22 23 24 25 25 24 24 24 23 22 22 21 20 19 18 17 16 16 16 15 15 15 15 15 15 16 16 16
10 11 13 18 18 14 13 13 13 13 14 15 14 12 12 13 13 13 15 17 17 18 19 19 21 23 24 26 27 26 25 24 23 22 22 21 21 21 22 24 25 25 26 28 29 27 27 29 31 32 32 30 29 27 25 26 27 25 25 26 27 27 27 28 28 28 26 24 23 24 24 24 25 25 25 25 24 22 20 20 20 19 19 19 19 18 18 18 18 17 16 16 16 16 17 17 17
10 11 14 17 15 13 13 12 12 13 13 13 13 13 13 14 14 14 16 18 19 20 21 21 22 25 25 26 26 25 23 22 22 22 21 20 21 22 22 23 23 23 23 24 25 25 25 26 28 29 29 27 26 25 25 25 26 26 27 28 30 30 29 30 30 30 27 24 24 25 26 26 26 26 26 25 22 21 20 20 19 19 19 20 20 21 21 21 21 20 18 18 18 18 18 18 19
10 11 12 13 12 12 13 12 12 13 13 13 13 13 13 14 15 16 16 19 20 22 24 23 22 24 24 24 24 23 22 21 21 21 21 22 22 22 23 24 24 24 25 26 27 27 27 26 27 27 26 26 26 26 26 26 27 28 30 31 31 31 31 31 31 30 26 24 24 24 25 25 25 25 25 23 22 22 22 21 21 21 21 21 21 24 25 24 24 23 22 21 20 20 21 21 21
12 12 11 11 11 12 13 13 13 13 13 13 14 14 14 14 16 17 17 19 21 21 24 24 23 24 23 23 23 23 23 23 23 23 24 24 24 25 25 25 26 27 28 29 30 30 30 30 30 29 29 29 29 30 29 29 29 30 32 32 32 32 32 31 31 29 26 25 25 26 26 27 27 27 27 26 26 25 25 24 24 23 22 22 22 24 26 27 27 26 25 23 22 22 23 23 23
14 15 13 12 12 13 13 13 14 14 14 15 14 14 15 16 17 18 19 20 22 22 23 24 24 23 23 24 25 26 26 26 26 26 26 27 28 28 28 28 29 29 30 31 32 32 33 33 33 32 33 33 33 33 32 32 32 33 33 33 33 33 33 32 31 30 28 29 30 31 31 31 31 31 31 30 29 29 28 27 26 25 24 23 23 24 26 27 29 28 27 25 23 23 24 24 25
21 20 18 16 15 15 15 15 15 15 16 15 15 16 16 16 17 19 21 22 23 23 24 25 25 25 25 26 27 28 28 28 28 29 29 30 30 30 31 31 31 31 32 34 35 36 37 37 37 37 37 37 37 36 35 36 36 36 36 36 36 36 35 34 34 33 33 33 34 35 35 35 35 35 34 33 33 32 31 30 29 28 27 26 26 27 27 28 29 29 28 27 25 25 25 25 26
26 23 22 21 21 20 18 17 18 18 18 17 17 19 19 19 20 22 24 25 25 25 26 27 27 27 29 29 30 31 31 31 32 32 33 34 34 34 35 36 36 37 39 41 42 43 43 43 42 43 43 42 41 40 39 40 39 39 39 38 38 38 37 37 38 37 37 38 38 39 39 39 39 38 37 37 36 35 35 34 33 32 31 31 31 31 30 30 30 30 29 28 27 26 26 26 28
26 24 25 27 27 25 22 21 21 22 22 20 21 23 22 22 23 26 28 28 26 27 29 30 30 31 32 33 33 34 35 36 37 38 40 40 41 41 42 42 43 44 45 45 46 47 46 45 45 46 46 45 43 41 40 40 39 39 39 39 39 39 40 40 40 39 39 40 42 43 42 42 42 41 40 40 40 40 39 39 38 37 36 36 36 35 35 34 33 32 31 29 29 28 28 28 30
23 21 23 25 25 24 24 24 23 23 23 22 23 24 24 24 26 29 30 30 29 31 33 33 34 36 37 38 39 40 42 43 44 45 45 46 45 45 44 43 43 43 43 44 44 44 44 44 44 44 45 44 43 42 41 40 40 40 41 41 41 42 42 41 41 41 40 41 44 45 44 44 44 44 44 44 44 44 44 43 43 41 40 40 40 39 38 37 36 35 34 32 32 31 31 31 32
19 19 21 21 21 22 21 22 22 22 23 22 23 27 28 27 28 30 31 32 33 35 38 39 41 43 44 45 46 46 46 45 45 44 44 43 42 41 41 40 40 40 41 42 43 43 44 45 45 47 47 48 47 47 46 45 45 44 43 43 43 43 43 43 44 44 44 45 46 47 47 47 48 48 47 48 48 48 47 47 46 45 44 44 43 42 41 40 39 38 37 36 35 34 34 33 34
19 20 24 24 25 26 23 22 22 22 24 22 24 34 36 31 31 33 35 37 39 42 44 46 46 46 46 45 44 43 41 41 40 40 39 39 39 39 39 39 39 40 41 43 43 45 47 48 49 50 51 51 52 51 51 50 49 48 47 46 46 46 46 47 48 49 49 49 50 50 51 51 51 52 51 51 52 51 51 51 50 49 48 47 46 45 44 43 41 40 40 39 38 38 37 36 36
25 27 32 35 34 33 30 30 29 28 31 29 33 44 44 39 39 40 41 42 42 44 43 42 41 40 40 39 39 38 38 38 38 38 39 39 40 41 41 42 43 43 45 45 47 48 50 50 51 52 52 53 53 54 54 53 53 53 52 52 51 51 51 51 53 53 54 54 53 53 54 55 55 56 55 55 56 55 55 54 53 52 52 51 50 50 48 47 45 44 43 42 42 41 40 40 39
38 38 43 47 45 42 40 40 40 38 39 37 39 47 46 42 41 40 40 39 38 38 36 36 35 35 36 37 37 38 39 39 40 40 42 42 44 45 46 47 47 48 48 49 50 51 51 52 53 53 54 54 55 55 55 56 56 56 56 56 55 55 55 55 56 57 57 58 57 56 56 58 59 59 59 59 59 59 59 58 58 57 56 55 55 55 53 52 50 49 48 46 45 45 44 44 43
47 43 43 47 47 45 44 41 39 37 35 33 35 39 40 37 36 36 36 36 35 34 34 34 35 35 36 37 38 40 41 42 42 44 45 46 47 48 49 50 50 51 51 52 53 54 54 55 55 56 56 57 57 58 58 58 59 59 60 60 60 60 60 59 59 61 62 62 61 60 60 60 62 62 61 61 61 61 61 61 61 60 59 59 58 58 58 57 55 54 53 52 50 49 49 48 47
40 38 37 39 39 39 38 35 32 30 30 31 31 33 36 35 35 36 35 35 34 34 35 35 36 37 37 39 40 42 43 45 46 48 48 49 50 51 52 53 53 53 54 54 54 54 54 54 54 54 55 55 56 56 57 57 58 59 60 61 62 63 64 63 63 64 67 67 67 66 65 64 64 65 64 63 63 64 63 63 62 62 61 60 60 60 60 60 58 57 56 56 55 54 53 53 52
27 28 29 33 34 33 33 32 29 29 31 31 32 34 36 36 36 36 35 35 36 37 37 38 39 40 41 43 44 46 46 47 48 49 51 52 53 53 54 54 54 53 52 52 52 51 51 51 51 51 51 51 51 51 51 52 52 52 53 54 56 57 58 59 58 60 62 65 65 65 66 66 65 66 67 66 65 65 65 65 64 63 63 61 61 60 60 60 60 59 57 57 57 57 57 57 56
22 24 26 30 32 30 31 32 30 30 32 34 36 37 38 38 39 38 37 37 38 40 40 42 43 43 45 46 47 47 46 46 47 49 49 50 50 50 50 51 51 51 50 51 51 50 50 50 49 49 48 47 46 46 45 44 44 43 43 43 44 44 45 46 46 47 48 51 52 53 55 57 57 59 61 62 63 64 64 65 65 65 64 62 61 60 60 60 60 59 57 56 57 57 58 58 57
24 28 30 32 33 31 32 33 31 32 36 38 39 40 41 41 40 38 38 39 40 41 42 42 43 44 46 47 46 44 42 43 43 44 45 45 46 46 46 47 47 47 46 45 45 44 44 43 42 42 42 42 41 40 39 39 39 39 38 37 37 38 38 38 38 38 38 39 39 40 40 41 42 43 44 46 48 50 52 54 56 57 57 58 58 58 58 58 57 57 56 56 56 56 57 57 57
27 29 32 33 32 31 33 34 33 33 37 40 40 42 43 41 41 41 40 41 41 42 43 43 44 46 48 47 43 39 37 39 41 42 43 43 43 43 42 42 40 39 37 35 35 36 36 36 37 38 38 39 39 39 39 39 38 38 37 36 36 36 36 36 35 34 33 32 31 31 31 31 31 31 30 31 31 32 34 36 38 40 42 44 46 48 50 51 52 53 54 54 54 54 54 55 56
29 28 32 32 30 31 34 37 35 34 38 40 41 44 46 44 45 45 44 45 47 46 45 46 49 51 50 45 40 36 35 37 38 39 39 38 38 37 36 34 33 32 31 31 32 33 35 36 37 37 37 37 37 36 36 36 35 33 32 31 29 29 29 29 27 26 26 25 25 24 24 24 24 23 23 23 24 25 26 27 29 29 31 33 34 35 37 39 42 44 46 49 50 51 52 53 54
27 27 29 29 28 29 33 37 37 36 38 40 43 49 51 49 49 49 48 49 49 48 47 49 51 48 44 39 34 31 30 31 31 32 33 33 33 32 31 30 29 28 28 29 30 29 30 31 30 30 30 29 28 27 27 27 27 26 25 24 23 22 21 20 19 19 19 20 19 19 19 19 18 18 18 19 21 24 25 25 25 25 27 28 28 28 28 30 32 33 35 38 40 42 45 48 51
29 29 28 27 27 27 30 33 35 37 38 40 47 54 55 52 51 51 50 51 52 53 52 49 43 37 34 31 28 26 25 26 27 29 30 31 31 30 29 28 27 26 27 27 26 25 24 23 23 22 22 22 23 23 24 25 24 23 22 21 20 18 16 15 15 15 16 16 16 16 16 16 16 16 17 19 22 24 25 24 23 23 23 23 23 22 23 24 25 27 28 29 30 32 33 36 39
31 27 24 24 24 26 30 32 34 40 44 45 49 52 54 52 51 53 53 55 59 56 47 40 34 31 30 28 25 24 24 25 26 28 29 31 31 29 27 27 27 27 28 27 25 23 22 21 21 21 22 22 23 25 26 25 24 22 20 18 16 14 13 13 13 14 14 15 15 15 16 17 17 17 18 20 22 24 24 24 23 23 22 20 20 19 19 19 20 21 23 23 24 25 26 27 28
25 21 22 24 23 26 31 33 36 42 45 44 46 49 53 54 55 57 56 54 51 41 32 29 28 29 29 27 25 24 24 25 26 27 28 29 29 29 27 27 28 29 29 28 26 24 23 23 22 23 24 25 26 27 26 24 23 21 18 15 13 12 12 12 13 14 14 15 15 16 17 17 18 18 18 18 21 24 25 26 26 26 24 21 20 20 19 19 19 19 20 20 20 21 21 21 22
18 18 22 23 23 26 32 34 37 42 41 41 45 48 54 59 59 58 53 46 38 30 28 26 25 26 26 25 24 23 25 26 27 28 28 28 28 28 28 29 29 30 30 30 29 28 27 25 25 26 27 27 28 27 25 24 22 20 16 14 13 13 13 14 14 15 15 16 16 17 17 17 18 19 19 19 22 26 28 29 29 28 26 23 22 21 20 20 21 21 20 21 21 20 20 21 20
18 18 19 21 24 27 33 37 39 43 43 42 43 46 56 61 56 51 47 40 34 30 28 25 23 23 23 23 24 24 25 26 27 28 28 28 29 29 29 30 30 31 31 31 31 31 31 28 27 28 29 29 29 27 26 25 23 20 16 15 15 15 16 16 17 17 17 17 18 18 18 19 19 20 21 21 24 28 29 29 29 29 28 24 22 21 21 21 20 20 20 20 20 20 21 21 21
17 17 17 23 28 28 33 38 41 45 49 46 41 43 53 55 47 45 45 38 32 29 26 24 22 22 22 23 24 25 26 26 27 27 28 28 29 29 30 31 32 33 32 32 33 34 34 32 29 29 31 31 30 28 27 26 24 21 18 17 16 16 17 18 19 19 19 19 19 20 20 21 21 22 22 22 24 26 28 29 29 29 26 23 21 20 20 20 20 20 20 20 20 20 20 20 21
14 15 16 22 26 27 31 38 41 44 46 42 35 32 37 40 40 41 40 34 30 28 26 25 23 22 24 24 25 25 26 27 27 28 29 29 30 31 31 32 32 33 34 34 36 37 37 35 31 30 33 34 32 29 28 27 26 23 20 18 18 18 19 20 21 21 20 20 21 21 22 22 23 23 23 23 23 24 26 27 27 26 24 23 22 21 20 21 21 21 21 21 21 21 20 20 20
13 12 13 13 16 21 27 36 42 42 38 31 26 24 27 35 39 36 33 31 30 29 28 27 25 24 24 25 25 26 26 27 27 28 29 30 30 31 31 32 32 33 35 36 38 39 39 37 34 32 34 36 34 31 31 30 28 25 22 21 21 21 22 23 23 23 22 22 22 23 23 23 23 23 23 23 23 23 24 24 24 24 24 24 23 23 23 24 23 23 23 23 23 23 22 21 21
13 12 15 17 21 26 29 34 34 32 29 22 19 22 25 32 36 33 33 33 31 29 28 27 27 25 25 25 25 26 26 27 27 28 29 29 30 30 30 31 32 34 35 37 38 39 38 37 36 35 34 34 34 33 34 34 30 26 24 23 23 23 24 25 25 25 24 23 23 24 24 24 24 24 24 24 24 24 25 25 25 25 25 25 25 25 25 25 24 24 24 24 23 23 23 23 22
15 14 18 26 32 32 32 34 33 30 27 19 18 25 28 29 32 34 35 33 30 30 28 28 28 26 25 26 26 27 27 27 27 28 29 30 30 30 31 32 33 34 34 36 37 37 37 38 37 36 35 34 35 36 37 36 32 28 25 25 25 25 25 26 27 26 26 26 25 25 25 25 25 26 26 26 26 26 27 28 28 28 28 28 27 26 26 25 26 25 25 25 24 24 24 24 23
18 18 20 26 30 28 27 31 35 35 31 22 21 27 30 29 29 31 32 31 31 31 31 31 29 28 28 28 28 27 27 27 28 29 30 30 31 31 33 33 33 33 34 35 36 37 38 39 39 38 36 37 38 39 40 37 32 28 27 27 27 26 27 27 28 28 28 28 27 27 27 27 28 28 28 28 28 28 29 30 31 30 31 30 29 28 28 28 28 28 27 27 27 26 26 26 25
16 18 20 23 25 27 30 30 31 33 32 31 29 26 29 29 27 30 31 30 31 32 33 34 31 30 30 30 30 28 27 28 28 30 31 32 32 32 32 32 33 34 34 36 37 38 40 40 40 39 38 40 40 40 41 37 31 29 29 28 28 27 28 29 30 30 30 30 29 29 28 29 30 30 30 29 30 31 32 32 33 33 33 33 32 31 31 31 32 32 32 31 30 30 29 29 29
14 17 17 21 25 28 31 30 30 30 26 27 25 21 25 26 25 29 31 31 34 35 35 34 31 30 31 32 31 28 27 29 30 32 33 33 33 32 32 33 34 35 35 37 39 40 41 41 41 40 40 41 41 41 41 35 30 30 31 30 30 29 29 31 32 33 33 32 31 31 30 31 31 31 31 31 32 33 34 34 35 35 36 35 35 35 36 37 37 37 36 36 35 34 33 33 33
16 18 15 21 28 29 29 29 33 33 26 23 20 17 22 25 23 28 31 32 36 35 34 33 31 32 33 32 30 28 29 31 32 34 34 33 32 31 32 33 35 35 36 38 41 42 43 42 42 41 41 42 42 43 42 35 31 32 32 32 31 31 31 32 34 35 35 35 34 33 33 33 33 33 33 33 33 34 35 36 37 39 40 40 39 39 40 40 40 40 40 39 38 36 35 35 34
14 16 15 19 24 25 26 27 30 33 30 30 28 21 21 23 24 28 30 31 32 32 32 33 33 34 33 31 30 30 32 32 34 34 34 33 31 30 30 32 34 35 36 39 42 43 44 44 43 43 43 44 44 45 42 36 33 34 34 33 33 32 32 34 36 37 38 37 37 36 36 36 35 35 34 34 35 36 38 40 42 44 46 45 42 41 41 41 41 40 39 38 37 36 35 33 33
16 18 19 21 24 23 24 26 28 30 30 34 36 30 23 22 26 27 27 28 29 29 31 32 32 32 31 30 30 30 31 32 33 33 32 31 29 29 30 31 33 34 37 41 43 44 45 45 46 45 46 47 47 47 43 37 34 35 35 35 35 35 35 37 38 39 39 39 39 39 38 38 37 35 35 36 37 40 42 44 47 49 49 46 42 40 40 40 39 38 38 37 36 36 34 33 33
18 22 23 23 25 25 24 26 29 30 31 33 35 33 24 19 23 26 26 27 27 27 29 30 30 30 30 29 29 29 30 31 33 33 32 31 31 31 32 32 34 37 40 42 43 44 46 47 48 48 49 49 48 48 44 37 35 36 37 36 37 38 38 40 41 41 41 41 41 41 40 39 37 37 37 38 41 43 45 47 49 50 48 44 41 40 40 40 39 39 39 39 38 37 37 36 35
18 21 23 22 23 25 24 28 32 31 31 28 26 27 22 17 21 24 24 25 24 25 27 28 28 29 29 29 29 30 31 32 34 35 36 36 35 35 36 36 38 39 41 43 44 46 48 49 49 50 51 51 49 48 42 36 36 37 38 38 39 40 41 42 43 43 42 42 41 41 40 39 38 38 39 41 43 46 46 47 48 48 47 44 43 42 41 42 42 42 42 42 42 41 40 39 39